Regional Weather Roundup
Issued by NWS

Home | Current Version | Previous Version | Text Only | Print | Product List | Glossary Off
Versions: 1 2 3 4 5 6 7 8 9 10 11 12 13 14 15 16 17 18 19 20 21 22 23 24 25 26 27 28 29 30 31 32 33 34 35 36 37 38 39 40 41 42 43 44 45 46 47 48 49 50

000
ASUS45 KSLC 161910
RWRUT

UTAH REGIONAL WEATHER ROUNDUP
NATIONAL WEATHER SERVICE SALT LAKE CITY UT
100 PM MDT TUE SEP 16 2014

UTZ001>011-023>025-162000-

NORTHERN UTAH

CITY           SKY/WX    TMP DP  RH WIND       PRES   REMARKS
HILL AFB       PTSUNNY   81  46  29 SE6       30.11F
LOGAN          SUNNY     77  47  34 VRB5      30.09F
OGDEN          MOSUNNY   84  43  23 S5        30.08F
PROVO AIRPORT  SUNNY     81  48  32 CALM      30.13F
SALT LAKE CITY MOSUNNY   89  38  16 S12       30.05F
VERNAL         SUNNY     75  43  31 VRB3      30.20F
WENDOVER       SUNNY     81  39  22 E9        30.07F
HEBER CITY     SUNNY     79  43  27 CALM      30.18F
WEST JORDAN    SUNNY     86  43  22 SE9       30.10F

$$

UTZ012>022-026-027-162000-

SOUTHERN UTAH

CITY           SKY/WX    TMP DP  RH WIND       PRES   REMARKS
BRYCE CANYON   MOSUNNY   72  45  37 SE9G23    30.36F
CEDAR CITY     MOSUNNY   84  39  20 VRB7      30.17F
MILFORD        SUNNY     87  41  19 S13       30.12F
MOAB/CYNLANDS  SUNNY     85  45  24 VRB6      30.12F
PRICE          SUNNY     80  37  21 MISG      30.23F
ST GEORGE      CLEAR     88  46  23 CALM      30.02F
KANAB            N/A     86  45  23 SE5       30.17F

$$

REGIONAL REPORTS     COLORADO/ARIZONA

CITY           SKY/WX    TMP DP  RH WIND       PRES   REMARKS
CRAIG, CO      SUNNY     80  43  26 N5        30.25F
GRAND JUNCTION SUNNY     80  42  25 CALM      30.17F
RIFLE          SUNNY     76  42  29 CALM      30.22F
MONTROSE       MOSUNNY   82  43  25 VRB5      30.24F
CORTEZ         SUNNY     80  51  36 SW7       30.25F
PAGE, AZ       SUNNY     86  50  28 N8        30.13F
GRAND CANYON   MOSUNNY   77  45  32 N7        30.28F
KINGMAN        MOSUNNY   87  62  43 SW12      30.05F
FLAGSTAFF      PTSUNNY   72  49  44 VRB5      30.30F

$$

REGIONAL REPORTS    NEVADA/IDAHO/WYOMING

CITY           SKY/WX    TMP DP  RH WIND       PRES   REMARKS
LAS VEGAS, NV  MOSUNNY   96  53  23 SE6       29.88F HX  93
ELY            SUNNY     82  33  17 S14G22    30.20F
ELKO           SUNNY     85  32  15 W6        30.09F
POCATELLO, ID  MOSUNNY   87  36  16 E12       30.07F
BURLEY         MOSUNNY   84  42  22 NE7       30.02F
EVANSTON, WY   MOSUNNY   80  38  22 SW21G28   30.28F
ROCK SPRINGS   SUNNY     79  31  17 SW10      30.25F

$$



USA.gov is the U.S. government's official web portal to all federal, state and local government web resources and services.